Regional Weather Roundup
Issued by NWS Nashville, TN

Home | Current Version | Previous Version | Text Only | Print | Product List | Glossary On
Versions: 1 2 3 4 5 6 7 8 9 10 11 12 13 14 15 16 17 18 19 20 21 22 23 24 25 26 27 28 29 30 31 32 33 34 35 36 37 38 39 40 41 42 43 44 45 46 47 48 49 50
000
ASUS44 KOHX 020310
RWROHX
MIDDLE TENNESSEE HOURLY WEATHER ROUNDUP
NATIONAL WEATHER SERVICE NASHVILLE TN
1000 PM CDT TUE SEP 01 2015

NOTE: "FAIR" INDICATES FEW OR NO CLOUDS BELOW 12,000 FEET WITH
NO SIGNIFICANT WEATHER AND/OR OBSTRUCTIONS TO VISIBILITY.

* THESE REPORTS ARE NOT UNDER NWS QUALITY CONTROL AND MAY NOT
  REPORT WEATHER SUCH AS PRECIPITATION AND FOG.


TNZ005>011-023>034-057-059-062>066-078-080-020400
...NORTHERN MIDDLE TENNESSEE...

CITY           SKY/WX    TMP DP  RH WIND       PRES   REMARKS
CLARKSVILLE    PTCLDY    74  67  78 CALM      30.10S
CROSSVILLE     CLEAR     70  67  90 CALM      30.19R
DICKSON        PTCLDY    73  70  88 CALM      30.11F
LIVINGSTON     CLEAR     76  66  71 CALM      30.16
NASHVILLE      PTCLDY    79  66  64 CALM      30.10S
SMYRNA         CLEAR     72  69  90 CALM      30.11S
$$
TNZ056-058-060-061-075>077-079-093>097-020400
...SOUTHERN MIDDLE TENNESSEE...

CITY           SKY/WX    TMP DP  RH WIND       PRES   REMARKS
COLUMBIA       CLEAR     73  73 100 CALM      30.10R
LEWISBURG      CLEAR     71  68  90 CALM      30.11R
MCMINNVILLE    CLEAR     72  72 100 CALM      30.13F
SHELBYVILLE    CLEAR     73  72  94 CALM      30.12S
TULLAHOMA      CLEAR     72  66  83 CALM      30.14S
WINCHESTER     CLEAR     72  70  94 CALM      30.13S
$$


...KEY TO REMARKS...
VSB - VISIBILITY IN MILES
WCI - WIND CHILL INDEX
HX  - HEAT INDEX



USA.gov is the U.S. government's official web portal to all federal, state and local government web resources and services.